Regional Weather Roundup
Issued by NWS

Home | Current Version | Previous Version | Graphics & Text | Print | Product List | Glossary On
Versions: 1 2 3 4 5 6 7 8 9 10 11 12 13 14 15 16 17 18 19 20 21 22 23 24 25 26 27 28 29 30 31 32 33 34 35 36 37 38 39 40 41 42 43 44 45 46 47 48 49 50
000
ASUS45 KTFX 222319
RWRMT
MONTANA HOURLY WEATHER ROUNDUP
NATIONAL WEATHER SERVICE GREAT FALLS MT
519 PM MDT MON SEP 22 2014

NOTE: "FAIR" INDICATES FEW OR NO CLOUDS BELOW 12000 FEET WITH NO
SIGNIFICANT WEATHER AND/OR OBSTRUCTIONS TO VISIBILITY.

* THESE STATIONS ARE NOT UNDER NWS QUALITY CONTROL. THEY DO NOT
   REPORT WEATHER SUCH AS PRECIPITATION OR FOG.

MTZ001>007-043-230000-
WEST OF THE DIVIDE
CITY           SKY/WX    TMP DP  RH WIND       PRES   REMARKS
KALISPELL      PTCLDY    81  45  28 S9        29.90F
MISSOULA       CLEAR     88  37  16 NW9       29.91S
BUTTE          CLOUDY    66  46  49 NW3       30.09S
MULLAN PASS    PTCLDY    64  41  43 VRB5      30.13S
* ESSEX        N/A       80  41  25 SE3        N/A
* LINCOLN      N/A       75  42  31 S4G9       N/A
* POLSON       N/A       84  45  26 SE2G7      N/A
* RONAN APT    PTCLDY    82  46  28 N/A        N/A
* SEELEY LAKE  N/A       82  34  18 W9G16      N/A
* THOMP F APT  PTCLDY    60  52  75 SW5        N/A
$$

MTZ008-052>055-230000-
SOUTHWEST MONTANA
CITY           SKY/WX    TMP DP  RH WIND       PRES   REMARKS
BOZEMAN        CLOUDY    66  50  56 CALM      30.04F
DILLON         CLOUDY    66  50  56 S5        30.08F
W YELLOWSTONE  CLOUDY    55  48  77 S9        30.18S
* THREE FORKS  CLOUDY    66  28  24 N/A        N/A
* BOULDER HILL N/A       67  45  45 SW14G19    N/A
* MONIDA PASS  N/A       56  51  83 SE7        N/A
* RAYNOLDS PAS N/A       58  45  62 SW4        N/A
* WHITEHALL    N/A       70  50  49 SW12G21    N/A
* WISE RIVER   N/A       64  48  56 SE9        N/A
$$

MTZ009>010-012-014-046-048-049-054-230000-
EAST SLOPES AND CENTRAL MONTANA
CITY           SKY/WX    TMP DP  RH WIND       PRES   REMARKS
CUT BANK       MOCLDY    82  37  20 W15G22    29.88S
GREAT FALLS    PTCLDY    82  46  28 SW14      29.88S
HELENA         MOCLDY    79  50  36 E13       29.94F
MALMSTROM AFB  PTCLDY    82  45  27 SW12G18   29.88S
* CONRAD       PTCLDY    84  46  26 W10G20     N/A
* EAST GLACIER N/A       76  38  25 NW12G17    N/A
* MONARCH      N/A       71  43  37 SW9        N/A
* PENDROY      N/A       78  44  30 NW12       N/A
* ROGERS PASS  N/A       70  42  36 NW3G12     N/A
* SAINT MARY   N/A       76  37  24 S8G16      N/A
* SWEET GRASS  N/A       80  40  24 NW9        N/A
* WHITE SULPH  N/A       67  48  51 S13G21     N/A
$$

MTZ011-013-016-021-035-040-045-047-050-051-230000-
NORTH CENTRAL MONTANA
CITY           SKY/WX    TMP DP  RH WIND       PRES   REMARKS
HAVRE          CLEAR     82  46  28 CALM      29.82S
LEWISTOWN      MOCLDY    75  55  50 N5        29.93S
* CHINOOK      CLEAR     81  52  37 E6        29.81F
* FORT BENTON  PTCLDY    86  45  24 W3        29.84R
* CHESTER      N/A       84  39  20 SW4        N/A
* DENTON       N/A       80  45  29 NE3        N/A
* GEYSER       N/A       75  49  40 W6         N/A
* JUDITH GAP   N/A       75  51  43 SW17       N/A
* LOMA         N/A       84  46  26 E2G8       N/A
$$

MTZ017>020-022>027-061-062-230000-
NORTHEAST MONTANA
CITY           SKY/WX    TMP DP  RH WIND       PRES   REMARKS
GLASGOW        CLEAR     81  46  29 S10       29.83F
GLENDIVE       PTCLDY    73  54  51 E7        29.88F
JORDAN         PTCLDY    79  50  36 S7        29.85F
SIDNEY         CLEAR     82  52  35 SE9       29.87S
WOLF POINT     CLEAR     84  50  31 SE5       29.83F
* BEAVER HILL  N/A       73  52  48 SE10       N/A
* CIRCLE       N/A       82  52  35 SE6        N/A
* LINDSAY DVD  N/A       78  44  30 SE13       N/A
* NAVAJO       N/A       81  45  28 SE12G17    N/A
$$

MTZ028>042-056>058-230000-
SOUTHCENTRAL AND SOUTHEAST MONTANA
CITY           SKY/WX    TMP DP  RH WIND       PRES   REMARKS
BAKER          MOCLDY    75  48  39 SE15      29.91S
BILLINGS       MOCLDY    82  45  27 W9        29.91S
LIVINGSTON     CLOUDY    73  48  41 W17       30.01F
MILES CITY     MOCLDY    84  48  29 VRB3      29.84F
* LAUREL APT   PTCLDY    82  45  27 SW10G16    N/A
* ROUNDUP APT  MOCLDY    79  50  36 S7         N/A
* ALZADA       N/A       77  49  37 E7         N/A
* HYSHAM       N/A       77  49  37 SW2G10     N/A
* LAME DEER    N/A       74  50  43 NW4        N/A
* REED POINT   N/A       76  46  35 W20G27     N/A
* ROSCOE HILL  N/A       75  40  28 NE7G12     N/A
$$

REGIONAL REPORTS...DAKOTAS
CITY           SKY/WX    TMP DP  RH WIND       PRES   REMARKS
WILLISTON      CLEAR     82  48  31 SE13      29.87F
DICKINSON      PTCLDY    73  50  44 S18       29.91F
BEACH          N/A       73  50  44 SE8       29.91F
CROSBY         CLEAR     79  46  31 S13G18    29.89S
TIOGA          CLEAR     77  48  36 SE13G20   29.94F
WATFORD CITY   CLEAR     81  48  32 SE14      29.87S
BISMARCK       CLEAR     79  48  34 SE16      29.95F
GRAND FORKS    CLEAR     75  46  36 S9        30.02S
FARGO          CLEAR     75  46  36 S10       30.05F
BUFFALO SD     MOCLDY    79  48  34 S16       29.84F
RAPID CITY     CLOUDY    72  50  46 S15       29.92F
$$

REGIONAL REPORTS...WYOMING/IDAHO/WASHINGTON
CITY           SKY/WX    TMP DP  RH WIND       PRES   REMARKS
GILLETTE       CLOUDY    75  45  34 SW13      29.93S
SHERIDAN       CLOUDY    70  48  46 SW14      29.95S
CODY           MOCLDY    70  43  38 W15G22    30.02S
YELLOWSTONE LA PTCLDY    48  45  89 W7G16     30.28R
SALMON         MOCLDY    75  50  42 S9        30.00S
MULLAN PASS    PTCLDY    64  41  43 VRB5      30.13S
SAND POINT     PTCLDY    79  50  36 CALM      29.91F
SPOKANE        MOCLDY    81  46  29 SW13      29.92R
$$

REGIONAL REPORTS...ALBERTA
CITY           SKY/WX    TMP DP  RH WIND       PRES   REMARKS
CALGARY        MOCLDY    81  41  24 N5        29.84S
LETHBRIDGE     MOCLDY    82  41  23 E3        29.83S
MEDICINE HAT   PTCLDY    82  48  31 W9        29.77S
EDMONTON       MOCLDY    82  41  23 W3        29.72S
WATERTON GATE  N/A       81  41  24 SW10       N/A
CARDSTON       N/A       77  48  36 NW6        N/A
MILK RIVER     N/A       82  41  23 NW9        N/A
$$

REGIONAL REPORTS...SASKATCHEWAN
CITY           SKY/WX    TMP DP  RH WIND       PRES   REMARKS
SWIFT CURRENT  CLEAR     81  45  28 S12G23    29.80S
MOOSE JAW      FAIR      81  52  37 S9        29.82F
REGINA         N/A       79  50  36 S10G18    29.84F
VAL MARIE      N/A       79  48  34 S12        N/A
ASSINIBOIA     N/A       82  43  25 S8         N/A
CORONACH       N/A       81  43  26 SE10       N/A

$$



USA.gov is the U.S. government's official web portal to all federal, state and local government web resources and services.